Wind_Speed
23 24 24 25 26 26 27 28 29 29 30 31 31 32 32 32 32 33 33 33 33 33 34 35 36 37 37 37 37 37 38 39 39 40 40 41 41 41 42 42 42 43 44 43
23 24 24 24 25 25 26 27 28 28 28 29 30 31 31 32 32 33 33 33 33 33 33 33 34 35 35 35 35 36 37 39 40 40 41 42 42 42 43 44 44 44 45 45
22 22 23 23 24 25 26 26 26 27 27 29 30 30 30 31 31 32 32 32 32 32 32 31 31 31 32 32 34 35 37 38 39 40 41 41 41 42 43 44 44 45 45 45
21 21 22 22 23 24 25 25 25 26 27 28 29 30 28 29 29 29 30 30 30 31 31 30 30 30 31 31 32 34 36 37 39 39 40 40 41 41 42 43 44 44 45 45
21 21 21 21 22 23 24 24 25 25 27 28 28 29 27 28 27 27 28 28 29 29 30 30 30 31 31 31 32 32 34 36 37 38 39 40 40 41 42 42 43 43 44 44
21 21 21 22 22 23 24 24 24 25 26 27 26 28 27 26 27 27 27 27 28 28 29 30 30 31 31 31 32 32 33 34 35 36 37 38 39 40 41 41 42 42 42 43
21 21 22 22 23 23 23 23 25 26 26 26 25 26 26 26 27 27 27 28 28 29 29 30 30 31 30 31 32 33 34 35 35 36 36 37 38 39 40 40 40 40 41 42
22 22 23 23 23 23 23 23 24 26 27 26 25 25 25 25 25 26 27 28 28 29 29 30 30 31 31 32 32 33 34 35 37 38 38 38 38 38 38 38 38 38 39 40
22 23 23 23 23 24 24 24 24 26 27 26 25 25 25 25 25 26 27 27 28 29 29 29 30 31 31 32 33 34 35 35 36 37 37 38 38 38 37 37 36 37 38 39
24 24 23 24 24 24 24 25 25 26 27 27 27 25 26 25 25 26 27 27 28 28 29 29 30 31 32 33 34 34 35 35 35 35 36 35 36 36 36 36 36 37 38 38
25 25 25 24 24 24 24 25 25 26 27 28 28 26 26 25 26 27 27 27 28 28 29 30 31 31 32 32 33 34 35 35 35 35 34 34 34 34 35 35 36 36 37 37
26 26 26 26 25 25 25 25 25 26 27 28 29 28 26 25 26 26 27 28 29 30 30 30 31 31 32 33 33 34 34 34 34 34 33 33 33 34 35 35 36 36 37 37
26 26 27 26 26 25 25 25 25 27 28 28 28 27 26 26 27 27 28 29 29 30 30 31 31 31 32 33 33 34 34 34 33 33 33 33 33 34 34 35 36 36 36 37
27 27 27 27 27 27 26 26 26 27 28 28 27 27 27 27 28 28 29 30 30 30 30 30 31 31 32 32 33 33 33 33 32 32 33 33 34 34 34 35 36 36 36 37
27 27 27 27 28 27 27 27 27 27 27 28 27 28 27 28 29 29 29 30 30 30 31 31 31 31 31 32 31 31 31 31 31 32 33 32 33 33 34 35 35 36 37 37
28 28 28 28 28 27 28 28 28 27 28 28 28 27 28 28 29 30 30 30 30 30 31 31 31 31 31 31 31 30 30 31 31 30 30 31 31 33 33 34 35 36 36 36
28 28 27 27 27 28 28 27 28 28 27 27 27 27 28 28 29 29 29 29 29 30 30 30 30 30 30 30 30 29 30 30 30 30 30 30 31 32 33 34 34 35 35 35
27 26 27 27 27 28 28 27 27 28 27 27 27 27 28 28 28 28 29 29 30 30 31 31 30 30 30 30 29 29 29 29 30 30 30 31 31 31 32 33 34 35 34 34
25 25 27 27 28 27 27 27 27 27 26 26 26 26 27 27 27 28 28 29 30 30 30 30 29 29 29 28 28 28 28 29 29 30 31 31 32 32 33 33 34 34 34 34
25 26 27 27 28 26 26 25 26 26 26 26 25 26 26 26 26 26 27 27 28 29 29 29 28 28 27 27 27 27 28 28 29 30 31 31 32 32 33 32 32 32 32 33
25 25 25 25 26 26 25 24 24 24 24 24 24 24 24 25 25 25 25 26 26 26 26 26 25 25 24 24 25 26 26 27 28 29 30 31 31 32 32 31 31 31 31 31
24 25 25 25 25 25 24 24 23 23 23 24 24 24 24 24 24 24 24 25 24 24 24 24 24 24 23 23 23 24 25 26 27 27 28 29 29 30 30 29 29 29 29 28
24 24 24 24 24 24 23 22 22 22 23 23 23 23 23 23 23 22 23 24 23 22 22 22 22 23 22 22 23 24 24 25 25 25 26 26 27 27 27 27 27 26 26 26
24 24 23 23 22 21 21 21 21 22 22 22 22 22 22 22 22 22 22 22 22 21 21 21 21 21 22 22 22 23 23 23 23 24 25 25 25 25 25 25 25 25 25 24
24 24 24 23 21 21 20 21 21 21 21 21 21 21 22 22 22 22 22 21 21 21 21 21 21 21 21 22 22 21 21 22 22 23 23 24 24 24 24 23 24 23 23 23
23 23 23 22 21 20 20 20 20 20 20 21 21 21 21 21 21 21 21 21 21 20 21 21 21 22 22 22 21 21 21 21 22 22 22 23 23 22 22 22 22 22 22 22
Wind_Direction
265 265 265 267 268 270 272 273 273 273 272 272 272 271 270 269 270 270 270 270 270 270 269 267 266 265 264 264 265 265 264 264 265 266 266 265 265 265 266 266 266 266 266 266
267 267 267 268 270 272 274 274 274 273 274 274 273 272 271 270 270 269 269 269 270 270 270 269 268 267 266 266 265 264 265 265 266 266 266 265 265 266 267 268 268 268 268 267
271 271 270 271 273 274 275 276 276 275 275 274 274 273 272 272 271 270 269 269 269 270 271 271 270 269 268 267 268 267 266 267 267 267 267 266 265 266 267 268 268 268 269 268
274 274 273 274 276 278 279 278 277 277 277 278 278 277 274 273 271 269 269 269 270 270 270 271 271 271 270 269 269 269 269 269 269 269 268 268 267 268 268 268 269 269 270 269
275 277 277 277 279 280 281 280 278 279 280 280 279 279 276 273 270 269 270 270 271 272 272 272 272 273 272 271 271 271 270 270 271 270 269 269 270 270 270 270 269 270 270 269
276 278 280 281 281 282 282 281 281 282 283 282 282 280 278 274 273 272 272 272 273 273 274 274 274 273 273 273 273 273 273 272 272 272 271 271 271 271 271 271 270 270 269 269
277 279 281 282 283 283 283 283 285 286 286 286 285 282 280 277 275 274 273 274 275 276 276 275 275 274 274 274 273 274 274 275 274 273 273 272 273 273 272 272 271 270 270 269
280 281 283 284 284 285 285 284 285 287 289 290 290 287 284 281 278 276 276 276 277 279 278 277 276 275 275 274 275 275 276 277 276 274 273 272 272 272 272 273 272 271 270 269
280 282 284 285 284 285 286 284 285 286 288 290 291 290 286 284 281 279 279 278 279 280 280 278 277 276 276 277 277 277 278 279 278 275 274 272 272 273 273 273 273 273 272 272
281 283 283 284 284 285 285 284 285 285 288 290 292 291 291 288 285 283 282 281 282 281 280 279 278 278 278 279 278 278 279 279 278 277 275 274 273 273 274 274 274 274 273 272
282 282 283 284 283 284 284 283 283 283 284 288 291 292 292 290 287 285 284 284 283 282 282 280 280 280 280 279 278 279 279 279 278 277 276 274 273 274 274 274 274 275 274 273
280 281 281 283 283 282 283 283 282 282 284 285 287 290 290 290 288 287 285 285 284 283 284 284 282 281 281 281 280 280 280 278 277 276 275 274 273 274 274 274 275 275 275 275
279 280 281 282 283 282 281 282 282 282 283 283 285 289 288 288 289 288 286 285 284 285 285 285 283 282 282 281 281 280 280 279 277 275 274 274 274 274 274 275 275 276 276 276
275 277 279 282 284 285 283 282 281 282 282 283 284 287 287 286 288 287 286 286 286 286 286 285 284 283 283 283 282 281 279 279 278 276 275 276 275 275 275 275 275 276 277 276
274 275 278 280 282 284 283 281 281 281 283 283 285 285 286 285 286 287 288 287 287 287 287 286 284 284 284 285 283 281 279 279 279 279 278 276 276 277 276 276 276 277 277 277
273 275 277 278 280 281 281 280 279 280 282 284 285 285 286 286 285 285 286 287 288 288 288 287 286 284 284 284 283 281 279 279 279 279 278 277 277 277 277 277 278 278 277 277
274 277 279 279 279 279 280 282 282 281 283 284 286 287 288 287 287 286 286 287 288 288 289 288 287 285 285 284 282 280 280 279 279 279 280 278 277 279 279 279 279 278 278 278
275 277 278 280 280 280 283 282 282 282 283 285 287 287 288 289 288 288 287 287 288 289 289 289 288 286 285 283 282 282 281 280 281 281 281 280 280 280 280 280 279 279 279 278
274 276 278 280 281 283 285 285 285 284 284 286 288 288 289 289 289 290 290 290 290 290 290 290 288 286 285 284 282 283 284 283 281 281 282 281 281 281 282 282 281 279 278 278
273 274 277 280 283 286 288 286 286 285 286 287 289 289 290 289 291 293 293 293 292 291 291 290 288 286 286 285 284 284 285 284 283 283 284 284 283 283 283 283 283 282 281 280
274 275 277 280 283 287 288 287 286 287 289 288 289 289 291 291 293 294 295 296 296 294 293 292 290 288 288 288 287 287 287 287 287 286 286 286 285 285 284 284 284 284 283 282
274 276 279 281 283 286 289 288 288 288 287 289 290 290 291 291 291 293 296 298 298 297 295 294 291 289 290 289 289 290 291 291 291 290 289 288 287 286 286 285 284 284 283 282
273 276 277 280 283 286 286 287 288 288 289 291 292 291 291 292 292 293 295 297 297 297 295 294 291 289 290 291 291 294 294 293 292 292 291 291 289 288 286 286 284 283 283 281
272 274 275 277 280 283 283 284 287 288 291 293 294 293 292 292 292 294 296 298 298 297 297 295 292 290 291 293 294 295 295 295 294 295 295 294 293 291 288 286 285 285 284 282
273 274 274 275 278 278 280 283 285 289 292 294 295 295 294 292 293 295 298 298 298 298 297 296 293 292 294 295 295 296 296 297 298 298 298 297 296 293 289 287 286 285 283 281
271 273 275 275 277 277 278 282 285 288 292 295 296 295 294 295 295 296 297 298 298 298 298 297 296 295 295 295 294 295 296 298 300 300 299 299 297 294 291 289 287 285 283 280
Height
5721 5722 5721 5721 5720 5720 5719 5718 5718 5717 5716 5715 5714 5714 5713 5712 5711 5710 5710 5709 5708 5707 5706 5706 5705 5705 5705 5705 5705 5705 5705 5704 5704 5703 5702 5702 5701 5701 5700 5700 5700 5699 5699 5699
5716 5715 5715 5714 5713 5712 5711 5710 5709 5708 5707 5706 5705 5704 5703 5703 5702 5701 5700 5700 5699 5698 5697 5696 5696 5695 5695 5695 5695 5695 5694 5694 5693 5693 5692 5691 5691 5690 5690 5689 5689 5689 5688 5688
5709 5709 5707 5707 5706 5705 5704 5703 5702 5700 5699 5697 5696 5696 5695 5694 5693 5692 5691 5691 5690 5689 5689 5688 5687 5687 5686 5686 5685 5685 5684 5683 5683 5682 5681 5680 5680 5679 5679 5678 5678 5677 5677 5676
5702 5702 5701 5700 5699 5698 5697 5696 5694 5692 5691 5689 5688 5686 5687 5685 5684 5683 5683 5682 5682 5681 5680 5680 5679 5678 5677 5676 5676 5675 5674 5673 5672 5671 5670 5670 5669 5669 5668 5668 5667 5666 5666 5665
5696 5696 5695 5694 5693 5691 5690 5688 5687 5686 5683 5682 5680 5678 5679 5676 5676 5675 5675 5674 5674 5673 5672 5671 5670 5669 5668 5667 5666 5665 5664 5663 5662 5661 5660 5659 5658 5657 5657 5656 5655 5655 5654 5654
5691 5690 5688 5687 5686 5684 5683 5682 5680 5678 5676 5675 5674 5671 5670 5669 5668 5668 5667 5667 5666 5665 5664 5663 5661 5660 5659 5658 5657 5655 5654 5653 5652 5651 5650 5648 5647 5646 5645 5645 5644 5643 5643 5642
5685 5684 5682 5681 5679 5678 5677 5675 5673 5670 5669 5668 5666 5663 5663 5663 5661 5660 5660 5659 5658 5656 5655 5654 5653 5651 5650 5649 5648 5647 5645 5643 5642 5641 5640 5638 5637 5636 5635 5634 5633 5633 5632 5631
5678 5678 5676 5674 5673 5672 5670 5668 5667 5664 5662 5661 5658 5656 5657 5655 5654 5652 5651 5650 5649 5648 5647 5645 5644 5643 5642 5640 5639 5637 5635 5634 5632 5630 5629 5628 5627 5626 5625 5624 5623 5622 5622 5621
5671 5671 5670 5668 5666 5665 5662 5661 5660 5657 5654 5653 5651 5650 5650 5648 5646 5645 5643 5642 5641 5640 5638 5637 5636 5634 5633 5631 5630 5628 5626 5623 5621 5619 5618 5618 5617 5616 5615 5614 5613 5612 5611 5611
5664 5663 5663 5661 5660 5658 5657 5654 5652 5650 5647 5645 5645 5643 5643 5640 5639 5637 5636 5634 5633 5631 5630 5628 5627 5625 5624 5622 5620 5618 5616 5614 5611 5610 5608 5607 5607 5606 5605 5604 5604 5603 5602 5600
5657 5656 5655 5654 5653 5651 5650 5648 5645 5643 5641 5639 5637 5639 5635 5633 5631 5629 5628 5626 5625 5623 5622 5620 5618 5616 5614 5612 5610 5608 5606 5604 5602 5600 5599 5598 5598 5597 5596 5595 5594 5593 5592 5590
5649 5648 5647 5647 5646 5644 5642 5640 5639 5637 5635 5632 5630 5632 5628 5626 5623 5622 5620 5618 5617 5615 5613 5611 5609 5607 5605 5603 5601 5599 5596 5595 5593 5591 5590 5589 5588 5587 5587 5585 5584 5583 5582 5580
5642 5640 5639 5638 5639 5637 5634 5633 5631 5629 5627 5625 5623 5625 5621 5618 5616 5614 5612 5610 5608 5606 5605 5602 5600 5598 5596 5594 5591 5589 5587 5585 5584 5582 5581 5580 5579 5578 5577 5576 5574 5573 5571 5570
5634 5633 5633 5632 5629 5628 5626 5625 5623 5621 5619 5618 5617 5616 5614 5611 5608 5606 5604 5602 5600 5598 5596 5594 5591 5589 5587 5584 5582 5580 5578 5576 5575 5573 5572 5571 5569 5568 5567 5566 5564 5563 5561 5559
5625 5625 5624 5623 5621 5619 5618 5617 5615 5613 5612 5610 5609 5607 5606 5602 5600 5598 5596 5594 5592 5590 5588 5585 5583 5580 5578 5576 5573 5571 5569 5568 5566 5564 5563 5561 5560 5559 5557 5556 5554 5552 5550 5549
5617 5617 5616 5615 5613 5611 5610 5609 5607 5606 5604 5603 5601 5600 5598 5595 5592 5590 5588 5585 5583 5581 5579 5576 5574 5571 5569 5567 5565 5562 5561 5559 5557 5556 5554 5552 5551 5549 5548 5546 5544 5542 5540 5539
5609 5608 5607 5606 5605 5603 5602 5602 5600 5598 5597 5595 5593 5593 5590 5587 5584 5582 5579 5577 5575 5573 5570 5568 5565 5563 5561 5559 5556 5554 5552 5551 5549 5547 5545 5543 5542 5540 5538 5536 5534 5532 5530 5528
5601 5600 5599 5598 5597 5595 5598 5594 5592 5591 5589 5587 5585 5583 5581 5579 5576 5573 5571 5569 5566 5564 5562 5559 5557 5554 5552 5550 5548 5546 5544 5542 5541 5539 5537 5535 5533 5531 5529 5527 5524 5522 5520 5518
5593 5592 5591 5590 5588 5588 5588 5586 5584 5582 5582 5580 5577 5576 5573 5571 5568 5566 5563 5560 5558 5556 5553 5550 5548 5546 5544 5542 5540 5538 5536 5534 5532 5530 5528 5526 5524 5522 5520 5517 5515 5512 5510 5508
5585 5585 5584 5582 5581 5580 5581 5579 5576 5576 5574 5572 5570 5567 5565 5563 5561 5559 5555 5553 5550 5547 5544 5542 5540 5538 5536 5533 5531 5530 5528 5526 5524 5522 5519 5517 5515 5513 5511 5508 5505 5503 5501 5498
5578 5577 5576 5575 5573 5573 5573 5571 5569 5569 5568 5565 5562 5560 5558 5555 5553 5551 5548 5545 5542 5539 5537 5534 5532 5530 5528 5526 5524 5522 5520 5518 5515 5512 5510 5508 5506 5503 5501 5498 5496 5494 5491 5489
5570 5569 5569 5567 5566 5568 5565 5563 5563 5561 5559 5557 5554 5553 5551 5549 5546 5544 5541 5538 5535 5532 5530 5527 5525 5523 5521 5519 5517 5515 5513 5510 5507 5505 5502 5500 5497 5494 5492 5489 5487 5484 5482 5480
5563 5563 5561 5561 5562 5559 5557 5556 5555 5553 5552 5550 5548 5546 5544 5542 5540 5537 5535 5532 5529 5527 5524 5521 5519 5517 5515 5512 5510 5508 5505 5503 5500 5497 5494 5492 5489 5486 5483 5481 5478 5476 5474 5472
5555 5555 5554 5554 5553 5552 5550 5549 5548 5546 5545 5543 5541 5539 5538 5535 5533 5531 5528 5526 5523 5521 5518 5515 5513 5511 5509 5506 5504 5501 5499 5496 5493 5490 5487 5484 5481 5478 5476 5473 5471 5469 5467 5465
5548 5548 5547 5546 5546 5545 5544 5542 5541 5540 5538 5537 5535 5533 5531 5529 5527 5525 5522 5520 5517 5515 5512 5510 5507 5505 5503 5500 5497 5495 5492 5489 5487 5484 5480 5477 5474 5471 5468 5466 5464 5462 5460 5458
5541 5541 5541 5541 5540 5538 5538 5536 5535 5534 5533 5531 5529 5527 5525 5523 5521 5518 5516 5514 5511 5509 5507 5504 5502 5499 5497 5494 5491 5489 5486 5483 5481 5477 5474 5471 5468 5465 5462 5459 5458 5455 5454 5452